Probability
0 0 0 0 0 0 0 0 0 0 0 0 0 0 0 2 13 37 66 84 90 88 80 73 66 62 59 59 63 67 71 72 74 76 76 78 81 83 85 87 83 75 70 69
0 0 0 0 0 0 0 0 0 0 0 0 0 0 0 2 12 35 63 81 84 79 71 63 54 48 45 45 47 51 54 58 61 62 61 62 68 74 79 83 83 79 75 74
0 0 0 0 0 0 0 0 0 0 0 0 0 0 0 3 12 30 52 65 64 58 52 44 34 27 25 25 26 28 32 37 40 38 36 40 50 60 68 72 75 77 76 75
0 0 0 0 0 0 0 0 0 0 0 0 0 0 0 2 9 20 29 33 32 30 27 21 15 13 13 14 18 23 26 26 25 22 20 24 34 42 48 52 56 60 64 65
0 0 0 0 0 0 0 0 0 0 0 0 0 0 0 1 4 7 9 9 9 9 8 6 5 6 7 11 19 28 31 27 23 18 14 15 18 21 24 26 29 32 37 41
0 0 0 0 0 0 0 0 0 0 0 0 0 0 0 0 0 1 1 1 1 1 1 2 3 4 6 9 17 25 28 27 24 20 16 11 7 6 7 7 8 9 13 17
0 0 0 0 0 0 0 0 0 0 0 0 0 0 0 0 0 0 0 0 0 0 1 1 2 4 5 7 11 16 21 23 23 21 17 11 5 2 1 1 1 1 2 4
0 0 0 0 0 0 0 0 0 0 0 0 0 0 0 0 0 0 0 0 0 0 1 2 3 4 4 5 6 10 15 17 18 18 15 10 5 1 0 0 0 0 0 1
0 0 0 0 0 0 0 0 0 0 0 0 0 0 0 0 0 0 0 0 0 0 1 1 2 2 2 3 4 7 10 11 11 11 8 6 4 2 1 0 0 0 0 0
0 0 0 0 0 0 0 0 0 0 0 0 0 0 0 0 0 0 0 0 0 0 0 0 1 1 1 1 2 4 6 6 6 5 4 3 3 2 1 0 0 0 0 0
0 0 0 0 0 0 0 0 0 0 0 0 0 0 0 0 0 0 0 0 0 0 0 0 0 0 0 0 1 1 2 4 4 3 3 3 3 1 0 0 0 0 0 0
0 0 0 0 0 0 0 0 0 0 0 0 0 0 0 0 0 0 0 0 0 0 0 0 0 0 0 0 0 0 1 3 3 3 3 3 2 1 0 0 0 0 0 0
0 0 0 0 0 0 0 0 0 0 0 0 0 0 0 0 0 0 0 0 0 0 0 0 0 0 0 0 0 0 0 1 1 2 2 2 1 0 0 0 0 0 0 0
0 0 0 0 0 0 0 0 0 0 0 0 0 0 0 0 0 0 0 0 0 0 0 0 0 0 0 0 0 0 0 0 0 1 1 1 0 0 0 0 0 0 0 0
0 0 0 0 0 0 0 0 0 0 0 0 0 0 0 0 0 0 0 0 0 0 0 0 0 0 0 0 0 0 0 0 0 0 0 0 0 0 0 0 0 0 0 0
0 0 0 0 0 0 0 0 0 0 0 0 0 0 0 0 0 0 0 0 0 0 0 0 0 0 0 0 0 0 0 0 0 0 0 0 0 0 0 0 0 0 0 0
0 0 0 0 0 0 0 0 0 0 0 0 0 0 0 0 0 0 0 0 0 0 0 0 0 0 0 0 0 0 0 0 0 0 0 0 0 0 0 0 0 0 0 0
0 0 0 0 0 0 0 0 0 0 0 0 0 0 0 0 0 0 0 0 0 0 0 0 0 0 0 0 0 0 0 0 0 0 0 0 0 0 0 0 0 0 0 0
0 0 0 0 0 0 0 0 0 0 0 0 0 0 0 0 0 0 0 0 0 0 0 0 0 0 0 0 0 0 0 0 0 0 1 0 0 0 0 0 0 0 0 0
0 0 0 0 0 0 0 0 0 0 0 0 0 0 0 0 0 0 0 0 0 0 0 0 0 0 0 0 0 0 0 0 0 0 0 0 0 0 0 0 0 0 0 0
0 0 0 0 0 0 0 0 0 0 0 0 0 0 0 0 0 0 0 0 0 0 0 0 0 0 0 0 0 0 0 0 0 0 0 0 0 0 0 0 0 0 0 0
0 0 0 0 0 0 0 0 0 0 0 0 0 0 0 0 0 0 0 0 0 0 0 0 0 0 0 0 0 0 0 0 0 0 0 0 0 0 0 0 0 0 0 0
0 0 0 0 0 0 0 0 0 0 0 0 0 0 0 0 0 0 0 0 0 0 0 0 0 0 0 0 0 0 0 0 0 0 0 0 0 0 0 0 0 0 0 0
0 0 0 0 0 0 0 0 0 0 0 0 0 0 0 0 0 0 0 0 0 0 0 0 0 0 0 0 0 0 0 0 0 0 0 0 0 0 0 0 0 0 0 0
0 0 0 0 0 0 0 0 0 0 0 0 0 0 0 0 0 0 0 0 0 0 0 0 0 0 0 0 0 0 0 0 0 0 0 0 0 0 0 0 0 0 0 0
0 0 0 0 0 0 0 0 0 0 0 0 0 0 0 0 0 0 0 0 0 0 0 0 0 0 0 0 0 0 0 0 0 0 0 0 0 0 0 0 0 0 0 0
Wind_Speed
2 2 4 7 8 9 5 3 4 4 6 7 6 4 5 5 4 6 8 11 13 11 9 10 11 10 9 7 7 6 5 3 1 1 2 3 4 4 4 5 6 6 6 5
3 5 13 10 5 2 2 4 4 4 6 5 4 4 5 6 2 3 8 10 11 10 9 9 9 9 8 7 6 5 4 3 2 1 2 2 3 3 4 4 5 6 6 5
7 8 5 1 4 5 3 3 3 2 4 4 4 7 7 7 7 7 8 8 9 10 9 7 7 7 6 6 5 4 4 3 2 1 0 2 2 3 3 4 4 5 6 6
3 2 2 2 3 2 2 1 3 5 6 4 4 3 7 3 6 6 5 5 5 6 7 6 6 6 6 6 6 6 5 5 4 3 2 0 1 3 4 4 4 6 6 6
4 3 2 1 2 1 1 3 5 5 3 4 4 1 6 2 3 1 3 4 5 5 6 7 7 7 6 6 5 5 5 4 3 2 2 1 1 3 3 4 5 6 5 6
4 3 1 1 2 1 3 7 9 7 5 2 3 1 6 3 5 4 3 5 6 6 6 6 6 5 4 3 3 4 4 3 2 2 1 0 2 3 5 6 6 5 4 4
5 6 5 2 3 5 6 7 6 7 6 5 4 1 7 6 6 8 9 8 7 7 6 6 6 6 4 3 2 2 3 2 2 1 1 1 1 2 4 5 6 6 5 5
0 4 4 2 0 1 1 8 6 2 3 6 4 1 6 4 7 8 7 7 6 7 6 7 7 5 4 4 4 3 3 2 2 1 1 1 1 2 2 4 5 6 5 6
2 3 4 4 2 3 0 1 8 7 0 2 4 2 4 3 4 5 6 6 6 6 6 5 5 5 5 5 5 4 4 3 2 1 1 1 2 2 3 4 4 5 5 6
3 1 5 5 3 1 3 3 5 4 2 2 6 4 4 6 6 5 6 6 4 3 4 5 5 5 5 5 5 4 5 4 3 2 2 1 1 2 2 3 5 6 6 6
4 3 5 6 2 3 2 1 4 4 5 5 3 7 6 6 4 4 3 1 1 2 2 3 4 5 6 5 5 4 4 4 4 3 3 2 1 1 2 3 4 5 5 6
3 5 2 6 7 3 1 2 5 4 4 5 4 7 8 3 5 6 6 6 5 4 2 1 3 4 4 5 4 4 4 5 5 4 4 3 2 1 1 2 4 5 5 5
5 6 4 10 10 8 5 3 1 4 3 4 4 4 6 7 10 9 9 9 9 9 8 7 5 3 3 4 4 4 5 5 5 5 5 4 3 2 1 1 2 3 4 5
7 5 6 5 7 5 7 10 10 3 3 5 5 3 5 8 8 9 9 9 10 11 11 11 10 8 6 5 4 4 5 6 6 6 5 5 5 4 3 1 1 2 3 4
6 4 5 6 7 6 8 11 11 8 6 5 5 6 3 5 6 8 9 10 13 13 14 13 11 9 9 8 7 6 6 6 6 6 6 6 6 5 4 3 1 1 2 2
4 4 1 3 5 7 7 9 5 6 6 8 9 6 5 4 6 9 10 11 12 11 12 12 11 11 11 11 10 9 8 7 6 7 7 7 6 6 5 4 3 1 1 1
3 5 2 4 5 4 4 6 6 8 8 5 5 3 6 7 8 6 7 9 10 10 11 11 10 10 10 11 11 11 10 7 6 8 8 8 8 8 7 6 4 3 2 1
7 5 4 2 2 2 3 5 11 11 10 9 6 6 7 8 6 1 5 7 10 11 12 12 11 11 10 10 11 12 12 8 7 8 8 9 9 9 8 7 6 4 3 3
7 8 5 3 3 5 3 4 3 1 5 8 6 8 10 10 8 3 5 6 7 8 8 9 9 9 9 10 11 12 12 10 7 7 8 10 11 10 10 9 7 5 4 4
5 5 5 3 3 5 2 10 12 2 3 5 6 8 10 10 8 6 10 12 12 11 9 9 9 9 9 10 10 10 11 11 10 10 9 9 11 12 12 11 8 6 5 5
5 5 2 2 4 1 6 12 10 2 4 6 7 8 9 6 7 11 14 14 12 12 12 11 10 9 9 9 8 9 10 11 11 12 11 9 10 12 12 11 8 7 6 6
2 3 3 2 2 2 8 7 5 2 5 7 8 9 10 12 14 15 15 14 13 14 13 11 9 9 8 8 7 8 10 10 11 11 11 9 9 11 11 11 10 9 9 8
4 1 0 2 1 1 1 1 4 5 7 8 9 12 13 15 16 17 16 15 15 14 13 11 10 10 9 8 7 8 9 9 10 11 11 10 9 10 10 12 12 10 9 8
4 4 3 3 2 2 3 4 5 7 10 12 13 15 15 17 18 18 17 15 14 14 13 11 10 10 10 9 8 8 9 8 8 10 10 10 8 9 10 10 11 10 10 10
4 5 3 3 2 5 5 6 8 10 12 14 16 16 17 17 18 18 15 14 13 12 11 10 9 10 12 10 9 9 8 7 7 8 9 9 8 8 9 10 11 13 12 13
2 2 2 2 4 5 9 10 12 13 15 16 17 17 16 14 15 15 14 12 11 11 10 10 10 11 12 10 10 9 8 7 6 6 7 7 8 7 7 8 7 10 10 16
Wind_Direction
256 92 248 239 208 209 237 295 327 337 350 51 39 19 355 2 64 109 112 108 103 98 98 93 92 89 81 73 79 87 89 79 85 256 259 260 260 262 264 261 260 262 262 259
346 261 241 243 246 251 352 16 2 356 360 44 26 354 347 355 356 141 133 123 117 114 102 96 96 94 96 94 88 86 91 100 116 208 253 255 266 272 267 275 276 270 267 260
223 247 229 198 357 354 8 73 49 3 358 23 47 351 344 352 47 85 107 119 122 122 119 116 110 111 115 124 137 138 141 133 138 151 290 329 329 321 317 305 294 289 281 269
245 285 38 33 333 350 322 346 38 16 24 329 45 331 309 358 62 83 104 112 120 126 132 137 135 140 152 170 172 168 171 170 173 157 142 164 292 292 287 290 289 292 285 275
324 333 2 357 307 6 256 9 12 347 342 347 357 99 287 25 87 151 162 160 166 171 163 163 166 172 183 185 179 181 182 188 193 179 167 171 269 268 283 297 301 301 295 288
308 319 327 268 314 38 66 29 8 26 56 11 269 183 280 251 199 186 200 205 200 195 188 184 189 189 200 188 169 170 176 204 217 199 191 204 290 304 315 316 313 308 301 295
337 340 336 336 18 10 66 68 23 4 12 276 281 115 263 258 189 178 190 209 211 208 201 201 202 203 203 183 166 160 166 212 236 219 249 293 308 317 314 312 311 311 305 296
338 315 304 322 121 164 108 125 144 186 242 284 333 206 266 251 190 195 197 209 218 214 209 207 203 193 183 168 156 155 164 196 218 208 241 328 346 330 314 312 310 307 301 294
163 270 297 295 262 143 161 202 167 143 269 330 306 294 304 290 226 213 214 219 221 217 205 199 187 176 171 161 166 172 169 178 194 185 168 37 12 356 332 324 321 312 308 305
121 275 306 320 2 358 162 154 74 89 122 293 301 293 250 256 247 224 214 213 216 187 170 165 169 172 171 172 177 170 165 173 180 165 145 112 53 9 353 347 338 327 320 320
96 99 323 356 355 291 321 105 123 135 159 163 256 273 258 241 227 200 212 204 163 133 152 180 183 183 180 180 176 169 168 168 168 166 151 134 107 38 20 0 341 332 330 333
113 107 310 284 279 274 167 161 141 151 236 186 189 270 332 37 51 61 53 40 30 28 5 246 209 200 194 192 188 181 180 179 183 177 167 160 151 110 45 355 337 338 339 339
118 94 22 344 344 355 3 331 267 165 158 193 199 251 355 35 46 44 47 36 28 21 12 1 342 310 262 231 216 205 200 195 189 176 170 171 171 163 169 311 329 336 340 346
104 114 154 205 243 276 304 307 305 284 216 230 210 145 3 20 34 32 34 33 31 26 19 13 5 348 324 300 269 244 228 206 192 181 177 184 190 188 194 211 297 322 335 354
98 158 207 223 247 270 290 297 296 287 255 199 139 111 32 13 37 36 32 29 27 22 17 12 3 354 344 330 311 288 260 227 199 186 188 195 192 185 186 193 223 298 338 357
112 167 195 279 271 288 300 320 329 16 30 97 99 68 348 358 41 41 31 26 21 11 4 359 356 353 345 337 326 309 284 251 210 196 199 194 183 184 188 194 202 228 286 332
180 159 154 262 290 339 351 347 75 66 30 65 87 41 349 4 23 38 27 21 10 355 349 347 345 342 340 333 329 320 299 271 227 208 201 190 185 188 192 192 194 207 220 204
174 152 152 211 348 251 198 87 106 98 60 47 60 27 6 343 317 75 46 13 350 343 340 336 332 330 330 333 334 331 324 297 251 224 207 194 189 191 188 186 194 202 198 184
172 152 146 154 209 249 149 51 1 185 82 27 21 4 349 329 311 263 16 351 324 317 316 314 313 312 319 327 331 337 334 323 291 256 227 204 192 189 186 189 194 193 184 183
51 92 130 165 204 241 300 336 324 113 106 19 359 341 337 344 338 306 326 327 319 314 310 308 311 314 318 322 326 336 335 334 323 299 271 229 198 189 190 192 187 180 178 182
5 9 20 247 249 240 341 322 336 353 321 322 320 316 315 303 268 283 298 300 296 296 295 296 300 303 303 309 320 325 326 326 318 313 299 260 214 197 191 187 178 173 173 170
63 26 353 348 294 314 353 13 43 297 282 289 295 292 289 283 283 286 288 287 288 290 288 287 286 286 288 294 304 311 311 312 317 317 309 285 233 206 192 181 179 175 170 171
55 18 287 73 101 175 319 169 226 246 272 279 279 283 283 283 282 283 283 282 283 282 280 277 274 278 280 280 281 290 295 304 317 320 314 305 264 217 189 181 180 175 175 176
12 357 107 98 107 254 265 258 259 259 263 272 275 277 278 277 278 280 280 280 278 277 274 272 272 273 276 274 272 267 277 290 305 314 313 310 285 230 199 184 181 178 181 182
358 2 51 80 335 321 294 277 274 279 281 282 283 282 281 282 283 284 285 285 282 280 277 272 269 271 273 272 270 270 271 278 290 306 312 313 298 246 206 192 188 184 189 187
23 49 50 276 260 253 267 271 280 287 290 293 295 295 293 291 291 294 295 293 291 289 286 282 276 273 274 272 269 270 268 266 272 291 306 309 304 264 216 192 185 193 185 187